[[{"header":{"parameterUnit":"m.s-1","parameterCategory":1,"la1":30.2991,"la2":30.254,"lo1":-89.0895,"lo2":-89.0444,"dy":0.0017,"dx":0.0017,"nx":28,"ny":28,"refTime":"2023-11-01T21:00:00:Z","depth":0,"parameterNumber":2,"parameterNumberName":"U-component_of_WINDS"},"data":[0,0,0,0,0,0,0,0,0,0,0,0,0,0,0,0,0,0,0,0,0,0,0,0,0,0,0,0,0,0,0,0,0,0,0,0,0,0,0,0,0,0,0,0,0,0,0,0,0,0,0,0,0,0,0,0,0,0,-3.1187,-3.1187,0,-3.1162,-3.1161,-3.1161,-3.108,-3.1078,-3.1077,-3.1075,-3.1051,-3.1052,-3.1053,0,0,0,0,0,0,0,0,0,0,0,0,0,-3.1168,-3.1169,-3.1187,-3.1187,-3.1186,-3.1162,-3.1161,-3.1161,-3.1081,-3.1078,-3.1076,-3.1074,-3.105,-3.1051,-3.1053,0,0,0,0,0,0,0,0,0,0,0,0,0,-3.1163,-3.1169,-3.1187,-3.1143,-3.1139,-3.1162,-3.1161,-3.1161,-3.1081,-3.1078,-3.1076,-3.1073,-3.105,-3.1051,-3.1053,-3.1116,0,0,-3.1058,-3.1058,0,0,0,0,0,0,0,0,-3.1163,-3.1164,-3.115,-3.1146,-3.1142,-3.1121,-3.1145,-3.1146,-3.1082,-3.1103,-3.1075,-3.1072,-3.1076,-3.1076,-3.1077,-3.1115,-3.1114,-3.1058,-3.1059,-3.1059,-3.106,0,0,0,0,0,0,0,-3.1164,-3.1164,-3.1177,-3.115,-3.1145,-3.1125,-3.1122,-3.1145,-3.1105,-3.1101,-3.1095,-3.1093,-3.1074,-3.1075,-3.1076,-3.1114,-3.1058,-3.1059,-3.106,-3.1061,-3.1204,-3.1207,0,0,0,0,0,0,-3.117,-3.1165,-3.1178,-3.1176,-3.1146,-3.1128,-3.1124,-3.1131,-3.1105,-3.1098,-3.1095,-3.1089,-3.1074,-3.1074,-3.1074,-3.1148,-3.1059,-3.1061,-3.1062,-3.1201,-3.1205,-3.1208,0,0,0,0,0,0,-3.117,-3.1172,-3.1179,-3.1169,-3.1168,-3.1131,-3.1139,-3.1131,-3.1133,-3.11,-3.1093,-3.1105,-3.1072,-3.1072,-3.1107,-3.1146,-3.1061,-3.1063,-3.1198,-3.1202,-3.1206,-3.1295,0,0,0,0,0,0,-3.117,-3.1172,-3.1196,-3.117,-3.1169,-3.1211,-3.1142,-3.1133,-3.1136,-3.1128,-3.1107,-3.1101,-3.107,-3.1105,-3.1108,-3.1146,-3.1064,-3.1194,-3.12,-3.1205,-3.1288,-3.1302,-3.1313,0,0,0,0,0,-3.1169,-3.1222,-3.1197,-3.1199,-3.1197,-3.1213,-3.1213,-3.1176,-3.1139,-3.1163,-3.1142,-3.1102,-3.1141,-3.1109,-3.1112,-3.1151,-3.1191,-3.1198,-3.1204,-3.1283,-3.1299,-3.1313,0,0,0,0,0,0,-3.1253,-3.1218,-3.119,-3.1236,-3.1228,-3.12,-3.1228,-3.1194,-3.1197,-3.1189,-3.1143,-3.1139,-3.1181,-3.1169,-3.1134,-3.1212,-3.1159,-3.1167,-3.1218,-3.1233,-3.1245,-3.1248,-3.1065,0,0,0,0,0,-3.1277,-3.1293,-3.1261,-3.1304,-3.1302,-3.1266,-3.1271,-3.1243,-3.1234,-3.123,-3.1212,-3.1205,-3.1215,-3.1223,-3.1231,-3.1286,-3.1281,-3.1315,-3.1327,-3.1337,-3.1345,-3.1374,-3.1389,-3.1229,-3.1229,-3.1229,0,0,-3.1327,-3.1309,-3.1322,-3.1321,-3.1311,-3.1329,-3.1264,-3.1285,-3.1298,-3.1234,-3.1265,-3.1252,-3.1241,-3.1286,-3.1305,-3.1277,-3.1388,-3.1346,-3.1354,-3.1356,-3.1382,-3.1397,-3.1411,-3.1233,-3.1233,-3.1232,0,0,-3.1426,-3.1414,-3.1449,-3.1441,-3.1428,-3.1404,-3.1413,-3.1389,-3.1378,-3.1408,-3.1361,-3.1376,-3.1395,-3.1389,-3.1389,-3.1487,-3.1451,-3.1491,-3.1556,-3.1585,-3.1598,-3.1609,-3.1645,-3.1658,-3.1498,-3.1498,-3.1498,0,-3.1489,-3.1513,-3.1471,-3.1496,-3.1498,-3.144,-3.1476,-3.147,-3.1461,-3.1464,-3.1433,-3.1456,-3.1445,-3.1488,-3.1512,-3.1514,-3.1523,-3.1493,-3.1599,-3.161,-3.1619,-3.1653,-3.1667,-3.1503,-3.1503,-3.1502,-3.1502,0,-3.1592,-3.161,-3.164,-3.1632,-3.1637,-3.1667,-3.1631,-3.1641,-3.1612,-3.1592,-3.1624,-3.1608,-3.1613,-3.162,-3.1593,-3.1661,-3.1644,-3.1607,-3.1554,-3.164,-3.1672,-3.1684,-3.1511,-3.1509,-3.1507,-3.1506,0,0,-3.1744,-3.1713,-3.1725,-3.1721,-3.1702,-3.1716,-3.1744,-3.1747,-3.1757,-3.1753,-3.1776,-3.1793,-3.1759,-3.1759,-3.173,-3.1756,-3.1836,-3.1715,-3.1715,-3.1739,-3.1911,-3.1939,-3.1955,-3.1811,-3.1813,-3.1815,-3.1912,0,-3.1839,-3.1885,-3.1848,-3.1901,-3.1917,-3.1863,-3.1887,-3.1879,-3.1861,-3.1872,-3.1852,-3.1866,-3.1819,-3.1819,-3.1841,-3.1821,-3.187,-3.1814,-3.1833,-3.1834,-3.1839,-3.1971,-3.2001,-3.2093,-3.1924,-3.1926,-3.1927,0,-3.1956,-3.1957,-3.2011,-3.199,-3.1995,-3.2018,-3.2019,-3.203,-3.202,-3.2005,-3.2006,-3.197,-3.1997,-3.1944,-3.1981,-3.1944,-3.195,-3.1941,-3.1944,-3.1945,-3.1887,-3.1977,-3.2121,-3.2136,-3.1946,-3.1944,-3.1943,0,-3.2063,-3.2077,-3.2112,-3.211,-3.2086,-3.2103,-3.2094,-3.2081,-3.2086,-3.2087,-3.209,-3.2094,-3.2097,-3.2101,-3.2068,-3.2033,-3.211,-3.2054,-3.2099,-3.21,-3.2119,-3.2118,-3.2268,-3.2121,-3.2121,-3.2121,-3.212,0,-3.2173,-3.2209,-3.216,-3.2181,-3.222,-3.2177,-3.2217,-3.2202,-3.2191,-3.221,-3.2163,-3.2181,-3.2136,-3.215,-3.2124,-3.2159,-3.2161,-3.215,-3.2143,-3.2155,-3.2156,-3.2159,-3.2152,-3.2124,-3.2123,-3.2123,-3.2122,0,-3.23,-3.2268,-3.2302,-3.2276,-3.2271,-3.23,-3.2279,-3.2298,-3.2276,-3.23,-3.2303,-3.227,-3.2284,-3.2251,-3.226,-3.2243,-3.2294,-3.2276,-3.2297,-3.2292,-3.234,-3.2337,-3.2497,-3.2516,-3.2357,-3.2358,-3.2359,0,-3.2373,-3.2399,-3.2376,-3.2385,-3.2378,-3.2392,-3.2397,-3.2357,-3.2364,-3.2354,-3.2375,-3.2385,-3.2391,-3.2416,-3.2393,-3.24,-3.2383,-3.2438,-3.2384,-3.2395,-3.2385,-3.2384,-3.2387,-3.245,-3.2452,-3.2454,-3.2455,0,-3.2506,-3.2489,-3.2497,-3.2501,-3.2508,-3.2508,-3.2506,-3.2516,-3.2473,-3.2483,-3.2496,-3.2501,-3.2511,-3.2522,-3.2523,-3.2514,-3.2479,-3.2472,-3.2483,-3.2496,-3.2508,-3.2504,-3.2329,-3.2469,-3.2468,-3.2467,-3.2466,-3.2465,-3.2609,-3.263,-3.2617,-3.2628,-3.2622,-3.2621,-3.2638,-3.2619,-3.2629,-3.2633,-3.2609,-3.2628,-3.2618,-3.2617,-3.2612,-3.2627,-3.2602,-3.2617,-3.2622,-3.2626,-3.2635,-3.2505,-3.2627,-3.2626,-3.2626,-3.2626,-3.2625,0,-3.2741,-3.273,-3.2741,-3.2739,-3.2748,-3.2712,-3.2707,-3.2718,-3.2735,-3.2728,-3.2735,-3.2751,-3.2762,-3.274,-3.2747,-3.2763,-3.2747,-3.2767,-3.2766,-3.2764,-3.2656,-3.2646,-3.278,-3.278,-3.278,-3.278,-3.278,-3.278,-3.2811,-3.2845,-3.2827,-3.2858,-3.2846,-3.2865,-3.2865,-3.2864,-3.2859,-3.2879,-3.2887,-3.2873,-3.286,-3.2866,-3.2875,-3.2868,-3.2873,-3.2899,-3.2887,-3.2787,-3.2772,-3.2757,-3.2748,-3.29,-3.2901,-3.2994,-3.2995,-3.2996]},{"header":{"parameterUnit":"m.s-1","parameterCategory":1,"la1":30.2991,"la2":30.254,"lo1":-89.0895,"lo2":-89.0444,"dy":0.0017,"dx":0.0017,"nx":28,"ny":28,"refTime":"2023-11-01T21:00:00:Z","depth":0,"parameterNumber":3,"parameterNumberName":"V-component_of_WINDS"},"data":[0,0,0,0,0,0,0,0,0,0,0,0,0,0,0,0,0,0,0,0,0,0,0,0,0,0,0,0,0,0,0,0,0,0,0,0,0,0,0,0,0,0,0,0,0,0,0,0,0,0,0,0,0,0,0,0,0,0,-2.4168,-2.4169,0,-2.4222,-2.4223,-2.4223,-2.4214,-2.4213,-2.4212,-2.4212,-2.4265,-2.4267,-2.4269,0,0,0,0,0,0,0,0,0,0,0,0,0,-2.4055,-2.4057,-2.4168,-2.4169,-2.417,-2.4222,-2.4223,-2.4224,-2.4214,-2.4213,-2.4212,-2.4211,-2.4264,-2.4267,-2.4269,0,0,0,0,0,0,0,0,0,0,0,0,0,-2.4106,-2.4058,-2.4168,-2.4171,-2.4172,-2.4222,-2.4223,-2.4224,-2.4215,-2.4213,-2.4212,-2.4211,-2.4263,-2.4266,-2.427,-2.4319,0,0,-2.428,-2.4282,0,0,0,0,0,0,0,0,-2.4103,-2.411,-2.417,-2.4171,-2.4172,-2.421,-2.4202,-2.4256,-2.4215,-2.4198,-2.4212,-2.421,-2.4248,-2.4252,-2.4265,-2.4322,-2.4324,-2.4281,-2.4283,-2.4284,-2.4285,0,0,0,0,0,0,0,-2.41,-2.4108,-2.4189,-2.4171,-2.4172,-2.4169,-2.4175,-2.4213,-2.423,-2.42,-2.4199,-2.4206,-2.4248,-2.4262,-2.4267,-2.4325,-2.4281,-2.4284,-2.4286,-2.4287,-2.4425,-2.4426,0,0,0,0,0,0,-2.4096,-2.4105,-2.4188,-2.4191,-2.4134,-2.4173,-2.4179,-2.4199,-2.423,-2.4233,-2.4207,-2.4205,-2.4257,-2.4263,-2.4268,-2.4329,-2.4284,-2.4287,-2.4289,-2.4423,-2.4425,-2.4427,0,0,0,0,0,0,-2.4093,-2.4103,-2.4186,-2.4148,-2.4158,-2.4176,-2.4199,-2.4201,-2.4215,-2.4235,-2.4238,-2.4219,-2.4256,-2.4264,-2.4307,-2.4331,-2.4289,-2.4292,-2.4421,-2.4424,-2.4426,-2.4451,0,0,0,0,0,0,-2.409,-2.4102,-2.4122,-2.4149,-2.416,-2.4224,-2.42,-2.4203,-2.4222,-2.422,-2.4247,-2.425,-2.4255,-2.4302,-2.431,-2.4335,-2.4295,-2.4419,-2.4423,-2.4425,-2.4448,-2.4454,-2.4459,0,0,0,0,0,-2.4086,-2.4126,-2.4123,-2.4133,-2.4185,-2.4225,-2.4232,-2.4238,-2.4224,-2.4243,-2.4256,-2.4249,-2.4327,-2.4306,-2.4316,-2.4342,-2.4418,-2.4422,-2.4425,-2.4446,-2.4453,-2.4459,0,0,0,0,0,0,-2.41,-2.4129,-2.4126,-2.4176,-2.4198,-2.4224,-2.4249,-2.4245,-2.4272,-2.4269,-2.4275,-2.4281,-2.4326,-2.4337,-2.4315,-2.4392,-2.437,-2.4376,-2.4383,-2.4389,-2.4395,-2.4392,-2.4298,0,0,0,0,0,-2.4109,-2.414,-2.4164,-2.4205,-2.4217,-2.4231,-2.4248,-2.4251,-2.4275,-2.4284,-2.43,-2.4322,-2.4351,-2.4371,-2.4399,-2.4449,-2.4455,-2.4472,-2.4477,-2.4481,-2.4487,-2.4516,-2.4524,-2.4439,-2.4439,-2.4439,0,0,-2.4128,-2.4148,-2.4167,-2.4209,-2.4226,-2.4258,-2.4239,-2.4273,-2.4297,-2.4289,-2.4332,-2.4344,-2.4369,-2.4416,-2.4438,-2.4428,-2.4511,-2.4486,-2.4489,-2.4492,-2.452,-2.4528,-2.4535,-2.4441,-2.4441,-2.444,0,0,-2.418,-2.4197,-2.4235,-2.4253,-2.428,-2.4289,-2.4298,-2.4324,-2.4333,-2.4375,-2.4371,-2.4398,-2.4448,-2.4467,-2.4483,-2.4541,-2.4536,-2.455,-2.4579,-2.4607,-2.4614,-2.462,-2.4642,-2.465,-2.4555,-2.4555,-2.4555,0,-2.42,-2.4248,-2.4254,-2.4289,-2.4308,-2.4303,-2.4341,-2.4358,-2.4392,-2.4405,-2.4393,-2.4457,-2.4473,-2.4526,-2.454,-2.4553,-2.4564,-2.4548,-2.4612,-2.4618,-2.4624,-2.4645,-2.4654,-2.4556,-2.4556,-2.4556,-2.4556,0,-2.4272,-2.4306,-2.4332,-2.4368,-2.4389,-2.4425,-2.4436,-2.4457,-2.4458,-2.4468,-2.4512,-2.4531,-2.4564,-2.4576,-2.4576,-2.4629,-2.4622,-2.4611,-2.459,-2.4634,-2.4654,-2.4662,-2.4559,-2.4558,-2.4558,-2.4557,0,0,-2.4336,-2.4374,-2.4384,-2.44,-2.443,-2.4455,-2.4491,-2.4524,-2.4542,-2.4566,-2.4597,-2.4639,-2.463,-2.4648,-2.465,-2.4674,-2.4721,-2.466,-2.4661,-2.4673,-2.4782,-2.4791,-2.4801,-2.4717,-2.4719,-2.472,-2.478,0,-2.4391,-2.4456,-2.4462,-2.452,-2.4552,-2.4547,-2.4578,-2.46,-2.461,-2.4637,-2.4648,-2.4679,-2.4663,-2.4674,-2.4698,-2.4711,-2.4743,-2.4706,-2.4747,-2.4748,-2.4743,-2.4811,-2.4822,-2.4878,-2.4788,-2.4789,-2.479,0,-2.4465,-2.4493,-2.4555,-2.4581,-2.4594,-2.4622,-2.4653,-2.468,-2.4703,-2.4709,-2.473,-2.4729,-2.4765,-2.4741,-2.4792,-2.4767,-2.4783,-2.4792,-2.4794,-2.48,-2.4773,-2.4821,-2.4895,-2.4905,-2.4802,-2.4802,-2.4801,0,-2.4508,-2.456,-2.4604,-2.4618,-2.4649,-2.4669,-2.4683,-2.4705,-2.4725,-2.4751,-2.4764,-2.4793,-2.481,-2.4833,-2.484,-2.4822,-2.4891,-2.4868,-2.4898,-2.4898,-2.4915,-2.4914,-2.4995,-2.4922,-2.4921,-2.4921,-2.4921,0,-2.4571,-2.4609,-2.4624,-2.4651,-2.4694,-2.47,-2.4742,-2.4754,-2.4774,-2.4803,-2.48,-2.4827,-2.4834,-2.4862,-2.4868,-2.491,-2.4917,-2.4923,-2.4924,-2.4925,-2.4924,-2.4937,-2.4934,-2.4923,-2.4923,-2.4923,-2.4922,0,-2.4627,-2.4638,-2.4686,-2.4712,-2.4719,-2.4749,-2.4771,-2.4797,-2.4806,-2.4844,-2.4852,-2.4867,-2.4901,-2.4909,-2.4949,-2.4952,-2.5003,-2.4999,-2.4996,-2.4996,-2.5027,-2.5025,-2.5121,-2.5135,-2.505,-2.5051,-2.5052,0,-2.4668,-2.4697,-2.4726,-2.4746,-2.4761,-2.4793,-2.4813,-2.4819,-2.4841,-2.487,-2.4893,-2.4926,-2.4953,-2.5007,-2.5021,-2.5051,-2.505,-2.5081,-2.5054,-2.5054,-2.5053,-2.5052,-2.5055,-2.5087,-2.5088,-2.5089,-2.5089,0,-2.474,-2.4744,-2.4773,-2.4805,-2.483,-2.4855,-2.4879,-2.4895,-2.4904,-2.4928,-2.4963,-2.4984,-2.5025,-2.5058,-2.5089,-2.5102,-2.5098,-2.5097,-2.5106,-2.5108,-2.5106,-2.5109,-2.5012,-2.5096,-2.5095,-2.5094,-2.5094,-2.5094,-2.4791,-2.4817,-2.4842,-2.4876,-2.4894,-2.4917,-2.4943,-2.4956,-2.4986,-2.502,-2.5021,-2.506,-2.5083,-2.5124,-2.5139,-2.5168,-2.5159,-2.5171,-2.5175,-2.5179,-2.5182,-2.5099,-2.5173,-2.5173,-2.5173,-2.5173,-2.5173,0,-2.4864,-2.488,-2.491,-2.4945,-2.4971,-2.4964,-2.499,-2.5013,-2.5047,-2.5069,-2.5096,-2.5136,-2.5168,-2.5185,-2.5216,-2.5237,-2.5236,-2.5245,-2.5245,-2.5249,-2.5188,-2.5178,-2.5246,-2.5246,-2.5246,-2.5246,-2.5246,-2.5246,-2.4906,-2.4951,-2.4958,-2.5012,-2.5028,-2.5066,-2.5082,-2.5102,-2.512,-2.5166,-2.5193,-2.5203,-2.5223,-2.5257,-2.5286,-2.529,-2.5302,-2.5314,-2.5317,-2.526,-2.5253,-2.5246,-2.5237,-2.5316,-2.5316,-2.5375,-2.5376,-2.5376]}]]